Location: 5810 Zion Rd, Cleves, OH 45002, USA
(39.1922°N, 84.7113°W)
Time: 11:30:27
(UTC-05:00)

Vanguard 3 - Pass Details

Date: 19 December 2019
Orbit: 507 x 3263 km, 33.4° (Epoch: 24 January)

Event Time Altitude Azimuth Distance (km) Brightness Sun altitude
Rises 05:08:27 0° 217° (SW) 2,647 - -31.0°
Reaches altitude 10° 05:10:51 10° 199° (SSW) 1,878 - -30.6°
Exits shadow 05:13:14 20° 163° (SSE) 1,511 8.7 -30.1°
Maximum altitude 05:13:58 20° 149° (SSE) 1,532 8.9 -30.0°
Drops below altitude 10° 05:18:03 10° 102° (ESE) 2,521 10.6 -29.2°
Sets 05:21:55 0° 88° (E) 3,916 11.9 -28.4°
